This is the latest recevied weather packets stored in our database for station/object WA5KWK. If no packets are shown the sender has not sent any weather packets the latest 10 day(s).
| Time | Temp. | Humidity | Pressure | Rain* | Wind** | Luminosity | Snow |
|---|---|---|---|---|---|---|---|
| 1777917305 | 8.33° C | 93% | 1013.9 hPa | 1.02 mm | - | 102 W/m² | - |
| 1777915805 | 7.78° C | 92% | 1013.8 hPa | 1.78 mm | - | 67 W/m² | - |
| 1777915205 | 7.78° C | 91% | 1013.8 hPa | 1.78 mm | - | 46 W/m² | - |
| 1777912205 | 8.33° C | 89% | 1013.5 hPa | 0 mm | - | 40 W/m² | - |
| 1777909505 | 7.78° C | 88% | 1013.5 hPa | 0 mm | - | 47 W/m² | - |
| 1777906804 | 7.78° C | 88% | 1013.6 hPa | 0 mm | - | 28 W/m² | - |
| 1777904705 | 7.78° C | 88% | 1013.4 hPa | 0 mm | - | 28 W/m² | - |
| 1777904405 | 7.78° C | 88% | 1013.2 hPa | 0 mm | - | 21 W/m² | - |
| 1777903505 | 7.78° C | 89% | 1013.2 hPa | 0 mm | - | 23 W/m² | - |
| 1777901704 | 7.78° C | 88% | 1012.9 hPa | 0 mm | - | 9 W/m² | - |
| 1777899604 | 7.78° C | 86% | 1012.9 hPa | 0 mm | - | 0 W/m² | - |
| 1777899304 | 7.78° C | 86% | 1012.8 hPa | 0 mm | - | 0 W/m² | - |
| 1777899004 | 7.78° C | 85% | 1012.7 hPa | 0 mm | - | 0 W/m² | - |
| 1777897804 | 7.78° C | 83% | 1012.6 hPa | 0 mm | - | 0 W/m² | - |
| 1777895104 | 8.33° C | 83% | 1012.6 hPa | 0 mm | - | 0 W/m² | - |
| 1777893905 | 8.33° C | 83% | 1012.8 hPa | 0 mm | - | 0 W/m² | - |
| 1777893605 | 8.33° C | 83% | 1012.8 hPa | 0 mm | - | 0 W/m² | - |
| 1777893005 | 8.33° C | 83% | 1012.5 hPa | 0 mm | - | 0 W/m² | - |
| 1777892104 | 8.33° C | 83% | 1012.5 hPa | 0 mm | - | 0 W/m² | - |
| 1777889104 | 7.78° C | 84% | 1012.4 hPa | 0 mm | - | 0 W/m² | - |
| 1777887004 | 7.78° C | 87% | 1012.5 hPa | 0 mm | - | 0 W/m² | - |
| 1777885804 | 7.78° C | 89% | 1012.7 hPa | 0 mm | - | 0 W/m² | - |
| 1777884605 | 7.78° C | 90% | 1012.8 hPa | 0 mm | - | 0 W/m² | - |
| 1777883405 | 8.33° C | 90% | 1012.7 hPa | 0 mm | - | 0 W/m² | - |
| 1777882805 | 8.33° C | 90% | 1012.8 hPa | 0 mm | - | 0 W/m² | - |
* Rain latest hour (hover to see other rain measurements)
** Current wind speed in m/s (hover to see current wind gust speed)